weather.gov     
National Weather Service

Regional Weather Roundup
NWS Homepage
This page is being discontinued on March 12, 2014.
The same data is available at this site. Please update your bookmarks.
Thank you, and we apologize for the inconvenience.
Please send an email to SR-SRH.Webmaster@noaa.gov with any concerns.


Current Version
Previous Version:    01  02  03  04  05  06  07  08  09  10  11  12  13  14  15  16  17  18  19  20  21  22  23  24  25  26  27  28  29  30  
   31  32  33  34  35  36  37  38  39  40  41  42  43  44  45  46  47  48  49  50  51  52  53  
[Printable]
067
ASUS43 KTOP 261908
RWRKS

WEATHER ROUNDUP FOR KANSAS
NATIONAL WEATHER SERVICE GOODLAND KS
200 PM CDT SAT JUL 26 2014

NOTE:  "FAIR" INDICATES FEW OR NO CLOUDS BELOW 12,000 FEET WITH NO
SIGNIFICANT WEATHER AND/OR OBSTRUCTIONS TO VISIBILITY.

KSZ001>006-013>018-027>032-041>047-262000-
NORTHWEST KANSAS

CITY           SKY/WX    TMP DP  RH WIND       PRES   REMARKS
GOODLAND       SUNNY     95  50  21 N16G24    30.03R
HAYS           SUNNY     97  66  36 SW7       29.88S HX 100
HILL CITY      SUNNY     99  61  28 VRB6      29.88F HX  99
RUSSELL        MOSUNNY   96  64  34 VRB5      29.85S HX  98
$$

KSZ061>065-074>080-084>089-262000-
SOUTHWEST KANSAS

CITY           SKY/WX    TMP DP  RH WIND       PRES   REMARKS
DODGE CITY     SUNNY     97  61  30 VRB3      29.93F HX  97
ELKHART          N/A     97  56  25 SE1         N/A  HX  95
GARDEN CITY    SUNNY     95  61  32 CALM      29.95F HX  95
GREAT BEND     MOSUNNY   97  66  36 NW6       29.86S HX 100
LIBERAL        SUNNY     99  54  22 W9        29.97F HX  96
PRATT          SUNNY     97  61  30 W6        29.90S HX  97
$$

KSZ066>073-081>083-090>101-262000-
SOUTHEAST KANSAS

CITY           SKY/WX    TMP DP  RH WIND       PRES   REMARKS
CHANUTE        PTSUNNY   95  73  48 S14G26    29.87F HX 104
COFFEYVILLE    MOSUNNY   95  72  47 S16G23    29.88F HX 103
HUTCHINSON     PTSUNNY  101  61  26 W16       29.84F HX 102
MEDICINE LODGE   N/A    100  61  27 SW10      29.86F HX 101
NEWTON         PTSUNNY   97  61  30 SW18G26   29.89S HX  97
PARSONS        PTSUNNY   96  72  45 S12       29.89F HX 104
WICHITA INTL   PTSUNNY  100  64  30 SW18      29.85F HX 102
WICHITA JABRA  MOSUNNY  100  66  32 SW17      29.85F HX 104
WICHITA MCCONL MOSUNNY   99  63  30 S15       29.86F HX 101
WINFIELD       MOSUNNY   99  70  38 S18G28    29.89S HX 106
$$

KSZ007>012-019>026-033>040-048>060-102>105-262000-
NORTHEAST KANSAS

CITY           SKY/WX    TMP DP  RH WIND       PRES   REMARKS
CONCORDIA      SUNNY    100  68  35 MISG      29.80F HX 105
EMPORIA        PTSUNNY   94  67  41 S15       29.84F HX  97
LAWRENCE       CLOUDY    87  72  60 SW6       29.81S
MANHATTAN      MOSUNNY   94  67  41 SW10      29.80F HX  97
MARYSVILLE     MOSUNNY   97  72  44 S9        29.79F HX 105
OLATHE IND     CLOUDY    84  72  67 S12       29.83F
OLATHE EXE     CLOUDY    83  73  72 SW8       29.83F
SALINA         SUNNY    100  61  27 VRB5      29.81F HX 101
TOPEKA BILLARD CLOUDY    88  69  53 S7        29.82R
TOPEKA FORBES  CLOUDY    88  69  53 SW9       29.82R
$$




U.S. Dept. of Commerce
NOAA National Weather Service
1325 East West Highway
Silver Spring, MD 20910
E-mail: w-nws.webmaster@noaa.gov
Page last modified: May 16, 2007
NATIONAL WEATHER SERVICE: for Safety, for Work, for Fun - FOR LIFE